TimeEDT,TemperatureF,Dew PointF,Humidity,Sea Level PressureIn,VisibilityMPH,Wind Direction,Wind SpeedMPH,Gust SpeedMPH,PrecipitationIn,Events,Conditions,WindDirDegrees,DateUTC
12:53 AM,63.0,57.0,81,29.92,10.0,SW,6.9,-,N/A,,Overcast,220,2012-10-03 04:53:00
1:53 AM,62.1,57.0,84,29.94,10.0,SSW,4.6,-,N/A,,Mostly Cloudy,210,2012-10-03 05:53:00
2:53 AM,60.1,55.9,86,29.96,10.0,SSW,3.5,-,N/A,,Overcast,200,2012-10-03 06:53:00
3:07 AM,60.8,57.2,88,29.96,10.0,SW,3.5,-,N/A,,Overcast,220,2012-10-03 07:07:00
3:53 AM,60.1,57.0,90,29.96,10.0,South,3.5,-,N/A,,Mostly Cloudy,180,2012-10-03 07:53:00
4:20 AM,60.8,57.2,88,29.98,10.0,SW,5.8,-,N/A,,Overcast,220,2012-10-03 08:20:00
4:29 AM,60.8,55.4,82,29.98,10.0,SSW,10.4,-,N/A,,Overcast,210,2012-10-03 08:29:00
4:53 AM,60.1,55.0,83,29.98,10.0,South,6.9,-,N/A,,Overcast,190,2012-10-03 08:53:00
5:44 AM,60.8,53.6,77,30.01,10.0,SSW,12.7,20.7,N/A,,Overcast,200,2012-10-03 09:44:00
5:53 AM,60.1,52.0,75,30.00,10.0,South,13.8,-,N/A,,Overcast,190,2012-10-03 09:53:00
6:53 AM,59.0,52.0,78,30.02,10.0,SSW,8.1,-,N/A,,Overcast,200,2012-10-03 10:53:00
7:53 AM,59.0,52.0,78,30.05,10.0,SSW,8.1,-,N/A,,Overcast,200,2012-10-03 11:53:00
8:53 AM,59.0,53.1,81,30.07,10.0,South,9.2,-,N/A,,Overcast,180,2012-10-03 12:53:00
9:22 AM,59.0,53.6,82,30.09,10.0,South,8.1,-,N/A,,Overcast,190,2012-10-03 13:22:00
9:53 AM,60.1,54.0,80,30.09,10.0,SSW,9.2,-,N/A,,Overcast,200,2012-10-03 13:53:00
10:14 AM,62.6,53.6,72,30.10,10.0,SSW,10.4,-,N/A,,Mostly Cloudy,200,2012-10-03 14:14:00
10:23 AM,62.6,53.6,72,30.10,10.0,SSW,8.1,-,N/A,,Mostly Cloudy,200,2012-10-03 14:23:00
10:34 AM,62.6,53.6,72,30.10,10.0,South,8.1,-,N/A,,Scattered Clouds,190,2012-10-03 14:34:00
10:53 AM,64.0,55.0,73,30.09,10.0,SSW,6.9,-,N/A,,Partly Cloudy,210,2012-10-03 14:53:00
11:53 AM,64.9,54.0,68,30.10,10.0,SW,11.5,18.4,N/A,,Partly Cloudy,230,2012-10-03 15:53:00
12:53 PM,68.0,55.0,63,30.10,10.0,SW,10.4,-,N/A,,Mostly Cloudy,230,2012-10-03 16:53:00
1:53 PM,68.0,54.0,61,30.08,10.0,SSW,12.7,-,N/A,,Partly Cloudy,200,2012-10-03 17:53:00
2:53 PM,69.1,55.0,61,30.07,10.0,South,6.9,-,N/A,,Mostly Cloudy,190,2012-10-03 18:53:00
3:53 PM,72.0,55.0,55,30.06,10.0,South,6.9,-,N/A,,Mostly Cloudy,190,2012-10-03 19:53:00
4:53 PM,70.0,54.0,57,30.06,10.0,South,5.8,-,N/A,,Scattered Clouds,180,2012-10-03 20:53:00
5:53 PM,68.0,54.0,61,30.08,10.0,SSE,6.9,-,N/A,,Clear,160,2012-10-03 21:53:00
6:53 PM,66.9,55.0,66,30.10,10.0,South,6.9,-,N/A,,Clear,170,2012-10-03 22:53:00
7:53 PM,64.0,55.0,73,30.10,10.0,Calm,Calm,-,N/A,,Clear,0,2012-10-03 23:53:00
8:53 PM,61.0,57.0,87,30.12,10.0,Calm,Calm,-,N/A,,Clear,0,2012-10-04 00:53:00
9:53 PM,59.0,55.0,87,30.13,10.0,Calm,Calm,-,N/A,,Clear,0,2012-10-04 01:53:00
10:53 PM,54.0,53.1,97,30.14,7.0,Calm,Calm,-,N/A,,Clear,0,2012-10-04 02:53:00
11:53 PM,55.0,54.0,96,30.16,4.0,Calm,Calm,-,N/A,,Clear,0,2012-10-04 03:53:00